Regional Weather Roundup
Issued by NWS San Angelo, TX

Home | Current Version | Previous Version | Text Only | Print | Product List | Glossary On
Versions: 1 2 3 4 5 6 7 8 9 10 11 12 13 14 15 16 17 18 19 20 21 22 23 24 25 26 27 28 29 30 31 32 33 34 35 36 37 38 39 40 41 42 43 44 45 46 47 48 49 50
000
ASUS44 KSJT 232002
RWRSJT
WEST CENTRAL TEXAS REGIONAL WEATHER ROUNDUP
NATIONAL WEATHER SERVICE SAN ANGELO TX
200 PM CST TUE JAN 23 2018

NOTE: "FAIR" INDICATES FEW OR NO CLOUDS BELOW 12,000 FEET WITH NO
SIGNIFICANT WEATHER AND/OR OBSTRUCTIONS TO VISIBILITY.

TXZ049-054-064>066-071>073-076>078-098-099-113-114-127-128-139-140-
154-155-168>170-232100
...LOCATIONS ACROSS WEST CENTRAL TEXAS...

CITY           SKY/WX    TMP DP  RH WIND       PRES   REMARKS
SAN ANGELO     SUNNY     61   8  12 VRB3      30.23F
ABILENE        SUNNY     58   8  13 VRB3      30.25F
DYESS AFB      SUNNY     57  11  16 E3        30.25F
JUNCTION       SUNNY     63  10  12 E9        30.22F
SWEETWATER     SUNNY     58   6  12 E3        30.26F
BROWNWOOD      SUNNY     61   3  10 SW9       30.26F
COLEMAN          N/A     60  11  14 CALM      30.25
SONORA         SUNNY     61   0   8 SE8G14    30.26F
OZONA          FAIR      61   5  11 SE14      30.24F
BRADY          NOT AVBL
$$

TEXAS PANHANDLE/OKLAHOMA PANHANDLE

CITY           SKY/WX    TMP DP  RH WIND       PRES   REMARKS
AMARILLO       SUNNY     49   5  16 CALM      30.26F
BORGER         SUNNY     51  10  19 CALM      30.26F
CANADIAN       SUNNY     54  13  20 N10       30.26F
DALHART        SUNNY     47  10  22 NE8       30.26F
DUMAS          CLEAR     46  10  23 E7        30.26F
GUYMON         NOT AVBL
HEREFORD       CLEAR     52   5  15 MISG      30.24F
PAMPA          CLEAR     52  11  19 NE10      30.26F
PERRYTON       SUNNY     51  18  27 N14       30.25F
$$

SOUTHERN PANHANDLE/SOUTH PLAINS/ROLLING PLAINS

CITY           SKY/WX    TMP DP  RH WIND       PRES   REMARKS
LUBBOCK        MOSUNNY   54   2  12 S9        30.23F
SNYDER         SUNNY     56   8  15 SW8       30.25F
CHILDRESS      SUNNY     51   8  17 VRB3      30.27F
SEMINOLE       CLEAR     56   6  13 S6        30.24F
$$

PERMIAN BASIN

CITY           SKY/WX    TMP DP  RH WIND       PRES   REMARKS
MIDLAND        SUNNY     58   3  11 SE10      30.23F
ODESSA         SUNNY     58   0   9 S10G18    30.23F
WINK           SUNNY     58  -1   9 SE14G22   30.20F
$$

FAR WEST/SOUTHWEST MOUNTAINS/TRANS PECOS

CITY           SKY/WX    TMP DP  RH WIND       PRES   REMARKS
ALPINE         CLEAR     57   4  12 S9        30.23F
DRYDEN           N/A     61  10  13 E9G20     30.18F
EL PASO        SUNNY     55   4  12 N10       30.18F
FORT STOCKTON  SUNNY     58   6  12 SE14      30.19F
GUADALUPE PASS SUNNY     50   3  14 VRB6      30.21F
MARFA          SUNNY     54   4  13 S8          N/A
PECOS          CLEAR     56   9  15 NE7       30.20F
$$

DALLAS/FORT WORTH METROPLEX

CITY           SKY/WX    TMP DP  RH WIND       PRES   REMARKS
DFW AIRPORT    MOSUNNY   58  17  20 NW6       30.26F
FTW MEACHAM    SUNNY     59  16  18 W5        30.27F
DAL-EXECUTIVE  SUNNY     55  18  23 W5        30.26F
GRAND PRAIRIE  SUNNY     55  18  22 N7        30.29F
ADDISON        SUNNY     54  16  22 NW6       30.28F
MESQUITE       CLEAR     55  14  19 CALM      30.28F
LANCASTER      CLEAR     56  17  21 NW7       30.28F
$$

NORTH CENTRAL TEXAS

CITY           SKY/WX    TMP DP  RH WIND       PRES   REMARKS
SHRMAN/DENISON NOT AVBL
GAINESVILLE    SUNNY     53  15  22 NW6       30.29S
BRIDGEPORT     CLEAR     55  17  22 NW3       30.29F
DENTON         SUNNY     57  18  21 NW7       30.27F
WAXAHACHIE     CLEAR     56  22  27 W7        30.28F
GRANBURY       CLEAR     59  15  18 NW8       30.28F
$$

WESTERN NORTH TEXAS

CITY           SKY/WX    TMP DP  RH WIND       PRES   REMARKS
WICHITA FALLS  SUNNY     53  15  22 CALM      30.28F
VERNON         CLEAR     54   2  12 CALM      30.29F
BRECKENRIDGE   CLEAR     58  12  16 CALM      30.27F
COMANCHE       SUNNY     60  14  17 N6        30.26F
$$

CENTRAL AND SOUTH CENTRAL TEXAS

CITY           SKY/WX    TMP DP  RH WIND       PRES   REMARKS
AUSTIN/BERGSTM PTSUNNY   64  19  17 VRB3      30.25F
WACO           SUNNY     61  18  18 NW7       30.26F
HILLSBORO      CLEAR     58  19  21 NW7       30.26F
TEMPLE         SUNNY     61  18  18 NW10      30.25F
KILLEEN-GRAY   SUNNY     62  11  13 NW6       30.23F
FORT HOOD      SUNNY     62  13  14 N5        30.20F
GEORGETOWN     SUNNY     64  17  16 VRB6      30.26F
LAGO VISTA     FAIR      63  14  14 CALM      30.25F
SAN MARCOS     MOSUNNY   64  17  16 NE9       30.25F
NEW BRAUNFELS  CLOUDY    63  18  17 CALM      30.24F
RANDOLPH AFB   CLOUDY    61  16  17 NE5       30.25F
SAN ANTONIO    CLOUDY    62  19  19 E6        30.25F
STINSON        CLOUDY    65  15  14 CALM      30.23F
PLEASANTON     NOT AVBL
LA GRANGE      NOT AVBL
GIDDINGS       PTCLDY    60  19  20 N3        30.26F
$$

EAST TEXAS

CITY           SKY/WX    TMP DP  RH WIND       PRES   REMARKS
PARIS          SUNNY     52  23  32 NW9       30.25F
CLARKSVILLE    NOT AVBL
TYLER          SUNNY     57  17  21 W7        30.24F
LONGVIEW       SUNNY     58  21  24 NW9       30.22F
PALESTINE      CLEAR     58  21  23 NW6       30.26F
NACOGDOCHES    NOT AVBL
$$

TEXAS HILL COUNTRY AND EDWARDS PLATEAU

CITY           SKY/WX    TMP DP  RH WIND       PRES   REMARKS
LLANO          NOT AVBL
HORSESHOE BAY  FAIR      62  14  15 NE3       30.25F
KERRVILLE      SUNNY     62 -10   5 E3        30.24F
FREDERICKSBRG  NOT AVBL
ROCKSPRINGS    CLEAR     61   9  12 SE7       30.27F
HONDO          CLOUDY    66  12  12 SE8       30.24F
UVALDE         CLEAR     64  13  14 CALM      30.24F
DEL RIO        SUNNY     64  19  17 SE8       30.21F
$$

SOUTHEAST TEXAS

CITY           SKY/WX    TMP DP  RH WIND       PRES   REMARKS
COLLEGE STN    SUNNY     62  22  21 VRB6      30.25F
CALDWELL       CLEAR     62  19  18 N9        30.26F
CROCKETT       CLEAR     59  23  25 N8        30.27F
BRENHAM        MOSUNNY   62  20  20 N6        30.26F
HUNTSVILLE     SUNNY     60  23  24 NW8       30.24F
CONROE         CLOUDY    62  21  20 N10       30.24F
HOUSTON BUSH   PTSUNNY   65  21  18 NW10      30.23F
HOUSTON HOBBY  PTSUNNY   63  19  18 NW10      30.22F
PERLAND        FAIR      64  18  17 N9        30.24F
WHARTON        PTCLDY    63  17  17 N8        30.25F
$$

THE UPPER TEXAS COAST

CITY           SKY/WX    TMP DP  RH WIND       PRES   REMARKS
ORANGE         FAIR      62  26  25 N8        30.22F
PORT ARTHUR    FAIR      64  24  21 N9        30.20F
GALVESTON      FAIR      63  24  22 N13       30.24F
ANGLETON       FAIR      64  24  21 N6        30.23F
BAY CITY       FAIR      64  23  20 N7        30.24S
$$

TEXAS COASTAL BEND, RIO GRANDE PLAINS DEEP SOUTH TEXAS

CITY           SKY/WX    TMP DP  RH WIND       PRES   REMARKS
VICTORIA       MOSUNNY   68  20  16 NE8       30.24F
BEEVILLE       FAIR      67  17  15 NE13      30.23F
ROCKPORT       MOSUNNY   63  31  30 E9        30.23F
PORT ARANSAS   NOT AVBL
PORT LAVACA    MOCLDY    64  20  18 NE7       30.25F
CORPUS CHRISTI CLOUDY    66  25  21 E9        30.23F
KINGSVILLE NAS PTSUNNY   71  17  12 N10G18    30.22F
COTULLA        MOSUNNY   65  15  14 SE7       30.23F
LAREDO         CLOUDY    64  26  23 SW8       30.23F
BROWNSVILLE    FAIR      70  40  33 NE13      30.21F
PORT ISABEL    PTSUNNY   68  39  34 NE15      30.21F
HEBBRONVILLE   NOT AVBL
MCALLEN        CLOUDY    70  32  24 NE9       30.22F
WESLACO        CLOUDY    68  32  26 E8        30.22F
FALFURRIAS     CLOUDY    68  18  15 E5        30.22F
EDINBURG       CLOUDY    70  12  10 E12G18    30.23S
$$



USA.gov is the U.S. government's official web portal to all federal, state and local government web resources and services.